Powrót do katalogu

STARLINK-4795

AktywnyŁącznośćVLEO
NORAD 53856·PAYLOAD·🇺🇸 United States

Wystrzelony Sep 19, 2022 z Cape Canaveral Space Force Station

Loading…

Następne Przeloty (najbliższe 24 godziny)

TLE

ŚwieżeSource: CelesTrak SupGP

Epoka: Sep 14, 2026, 14:12 UTC

1 53856C 22114AQ  26257.59215278  .00011591  00000+0  43713-3 0  2572
2 53856  53.1976 106.4840 0001498  86.5282 103.7987 15.26512316    14

Śledź STARLINK-4795 w czasie rzeczywistym z AllMySat

Download on the App Store